Location: Feigenhofen
(48.4939°N, 10.7793°E)
Time: 21:52:29
(UTC+00:00)

USA 32 - Pass Details

Date: 26 May 2022
Orbit: 777 x 782 km, 85.0° (Epoch: 22 June)

Event Time Altitude Azimuth Distance (km) Brightness Sun altitude
Exits shadow 00:34:58 33° 201° (SSW) 1,293 4.6 -18.1°
Maximum altitude 00:37:21 71° 277° (W) 827 4.1 -18.0°
Drops below altitude 10° 00:42:36 10° 2° (N) 2,346 7.6 -17.6°
Sets 00:44:59 0° 5° (N) 3,277 8.7 -17.5°
